Location: Stoke Bliss
(52.2667°N, 2.5167°W)
Time: 21:30:40
(UTC+00:00)

Resurs 1-3 - Pass Details

Date: 03 March 2021
Orbit: 629 x 633 km, 97.9° (Epoch: 15 April)

Event Time Altitude Azimuth Distance (km) Brightness Sun altitude
Exits shadow 19:38:49 31° 114° (ESE) 1,108 4.3 -16.8°
Maximum altitude 19:40:19 43° 67° (ENE) 895 4.0 -17.1°
Drops below altitude 10° 19:44:30 10° 357° (N) 2,030 6.4 -17.7°
Sets 19:46:47 0° 351° (N) 2,943 7.3 -18.0°
